CFG9AJ EDDS-EDAH

Flight info

Callsign CFG9AJ
Flight time N/A
Altitude 37000
Route OKIBA4H OKIBA N851 RIMKI Z99 LOHRE N746 MAG DCT RIMKO N746 GUDOP/N0426F270 Z131 RODEP M725 UDAXI
Aircraft A319/M-SDE3FGHIRWY/LB1

Departure

Time N/A
Airport Stuttgart Airport (EDDS)

Arrival

Time 2026-04-30 14:54
Airport Heringsdorf Airport (EDAH)
Time Latitude Longitude Altitude Speed Heading
2026-04-30 14:03 50.80365 10.32549 37379 ft 397 kts 36°
2026-04-30 14:04 50.88638 10.42187 37383 ft 395 kts 36°
2026-04-30 14:04 50.93074 10.47253 37376 ft 395 kts 35°
2026-04-30 14:05 50.97554 10.52288 37385 ft 395 kts 35°
2026-04-30 14:05 51.02036 10.57353 37392 ft 395 kts 35°
2026-04-30 14:06 51.08724 10.64951 37395 ft 395 kts 35°
2026-04-30 14:07 51.15361 10.72529 37401 ft 394 kts 36°
2026-04-30 14:08 51.22074 10.80197 37405 ft 394 kts 36°
2026-04-30 14:08 51.28749 10.87847 37407 ft 394 kts 36°
2026-04-30 14:09 51.33181 10.92950 37413 ft 393 kts 36°
2026-04-30 14:10 51.39819 11.00621 37412 ft 393 kts 36°
2026-04-30 14:10 51.44276 11.05785 37412 ft 394 kts 36°
2026-04-30 14:11 51.48695 11.10922 37411 ft 393 kts 36°
2026-04-30 14:11 51.53115 11.16075 37412 ft 393 kts 36°
2026-04-30 14:12 51.57535 11.21244 37413 ft 393 kts 36°
2026-04-30 14:12 51.61935 11.26492 37418 ft 393 kts 38°
2026-04-30 14:13 51.66099 11.32175 37419 ft 393 kts 39°
2026-04-30 14:13 51.70230 11.37955 37426 ft 393 kts 40°
2026-04-30 14:14 51.74327 11.43713 37432 ft 393 kts 40°
2026-04-30 14:14 51.78460 11.49534 37431 ft 393 kts 39°
2026-04-30 14:15 51.82577 11.55346 37436 ft 392 kts 39°
2026-04-30 14:15 51.86684 11.61163 37440 ft 392 kts 39°
2026-04-30 14:16 51.90774 11.66970 37441 ft 392 kts 40°
2026-04-30 14:16 51.94921 11.72876 37441 ft 393 kts 40°
2026-04-30 14:17 51.99044 11.78731 37443 ft 392 kts 39°
2026-04-30 14:17 52.03313 11.84207 37435 ft 391 kts 37°
2026-04-30 14:18 52.07592 11.89599 37424 ft 391 kts 37°
2026-04-30 14:18 52.14076 11.97806 37420 ft 392 kts 37°
2026-04-30 14:19 52.20529 12.06014 37412 ft 392 kts 37°
2026-04-30 14:20 52.24823 12.11492 37412 ft 392 kts 37°
2026-04-30 14:20 52.31260 12.19731 37412 ft 391 kts 37°
2026-04-30 14:21 52.35522 12.25207 37412 ft 391 kts 37°
2026-04-30 14:22 52.41911 12.33440 37417 ft 390 kts 37°
2026-04-30 14:22 52.48304 12.41711 37137 ft 388 kts 37°
2026-04-30 14:23 52.52618 12.47306 35271 ft 401 kts 37°
2026-04-30 14:23 52.57019 12.53030 33389 ft 408 kts 38°
2026-04-30 14:24 52.61408 12.58763 31834 ft 404 kts 38°
2026-04-30 14:24 52.63601 12.61632 31166 ft 400 kts 38°
2026-04-30 14:25 52.67883 12.67249 30230 ft 384 kts 39°
2026-04-30 14:25 52.71914 12.72781 29239 ft 372 kts 41°
2026-04-30 14:26 52.75774 12.78256 28262 ft 362 kts 41°
2026-04-30 14:26 52.77671 12.80945 27779 ft 357 kts 41°
2026-04-30 14:26 52.81466 12.86330 27416 ft 361 kts 41°
2026-04-30 14:27 52.83374 12.89041 27415 ft 362 kts 41°
2026-04-30 14:27 52.85260 12.91723 27414 ft 362 kts 41°
2026-04-30 14:27 52.87184 12.94463 27410 ft 362 kts 40°
2026-04-30 14:28 52.90995 12.99897 27416 ft 362 kts 40°
2026-04-30 14:28 52.92874 13.02583 27411 ft 361 kts 40°
2026-04-30 14:28 52.94817 13.05365 27410 ft 362 kts 41°
2026-04-30 14:28 52.96726 13.08100 27261 ft 357 kts 40°
2026-04-30 14:29 53.00510 13.13522 25386 ft 368 kts 40°
2026-04-30 14:29 53.03954 13.17663 24170 ft 365 kts 32°
2026-04-30 14:30 53.11321 13.24114 21971 ft 355 kts 28°
2026-04-30 14:31 53.15664 13.27800 20775 ft 349 kts 28°
2026-04-30 14:31 53.19941 13.31441 19627 ft 342 kts 29°
2026-04-30 14:31 53.22042 13.33232 19047 ft 340 kts 28°
2026-04-30 14:32 53.26199 13.36782 17960 ft 334 kts 29°
2026-04-30 14:32 53.28273 13.38559 17423 ft 332 kts 29°
2026-04-30 14:32 53.30310 13.40304 16882 ft 329 kts 28°
2026-04-30 14:33 53.32326 13.42034 16361 ft 327 kts 28°
2026-04-30 14:33 53.36356 13.45496 15308 ft 323 kts 28°
2026-04-30 14:33 53.38374 13.47233 14787 ft 321 kts 28°
2026-04-30 14:34 53.40332 13.48922 14258 ft 320 kts 28°
2026-04-30 14:34 53.42313 13.50629 13699 ft 319 kts 28°
2026-04-30 14:34 53.44273 13.52324 13168 ft 317 kts 28°
2026-04-30 14:34 53.46234 13.54021 12632 ft 315 kts 28°
2026-04-30 14:35 53.50088 13.57357 11617 ft 309 kts 28°
2026-04-30 14:35 53.51988 13.59002 11243 ft 301 kts 28°
2026-04-30 14:35 53.53840 13.60593 10878 ft 295 kts 27°
2026-04-30 14:36 53.55650 13.62123 10495 ft 289 kts 27°
2026-04-30 14:36 53.57440 13.63632 10105 ft 284 kts 27°
2026-04-30 14:36 53.59203 13.65125 9724 ft 279 kts 28°
2026-04-30 14:36 53.60912 13.66578 9365 ft 275 kts 28°
2026-04-30 14:37 53.62620 13.68031 9011 ft 270 kts 27°
2026-04-30 14:37 53.64285 13.69446 8672 ft 266 kts 27°
2026-04-30 14:37 53.65928 13.70843 8345 ft 261 kts 27°
2026-04-30 14:37 53.67539 13.72173 8011 ft 257 kts 22°
2026-04-30 14:38 53.69304 13.72725 7678 ft 256 kts
2026-04-30 14:38 53.71061 13.72294 7381 ft 255 kts 352°
2026-04-30 14:38 53.72788 13.71748 7080 ft 249 kts 359°
2026-04-30 14:38 53.74432 13.72368 6789 ft 240 kts 31°
2026-04-30 14:39 53.75603 13.74297 6531 ft 239 kts 57°
2026-04-30 14:39 53.76086 13.76986 6237 ft 243 kts 83°
2026-04-30 14:39 53.76028 13.79816 5970 ft 241 kts 88°
2026-04-30 14:40 53.75866 13.85397 5471 ft 233 kts 88°
2026-04-30 14:40 53.75791 13.88086 5218 ft 229 kts 88°
2026-04-30 14:40 53.75716 13.90788 4983 ft 225 kts 88°
2026-04-30 14:40 53.75642 13.93412 4772 ft 222 kts 88°
2026-04-30 14:41 53.75569 13.95985 4559 ft 219 kts 88°
2026-04-30 14:41 53.75498 13.98555 4293 ft 219 kts 88°
2026-04-30 14:41 53.75425 14.01130 3989 ft 219 kts 88°
2026-04-30 14:41 53.75352 14.03701 3682 ft 220 kts 88°
2026-04-30 14:42 53.75279 14.06289 3402 ft 220 kts 88°
2026-04-30 14:42 53.75205 14.08836 3209 ft 216 kts 88°
2026-04-30 14:42 53.75131 14.11341 3040 ft 211 kts 88°
2026-04-30 14:42 53.75058 14.13799 2928 ft 210 kts 88°
2026-04-30 14:43 53.74986 14.16258 2854 ft 210 kts 88°
2026-04-30 14:43 53.74912 14.18741 2796 ft 210 kts 88°
2026-04-30 14:43 53.74838 14.21196 2751 ft 210 kts 88°
2026-04-30 14:43 53.74762 14.23692 2706 ft 210 kts 88°
2026-04-30 14:44 53.74688 14.26127 2665 ft 210 kts 88°
2026-04-30 14:44 53.74611 14.28632 2629 ft 211 kts 88°
2026-04-30 14:44 53.74534 14.31082 2594 ft 211 kts 88°
2026-04-30 14:44 53.74456 14.33555 2553 ft 210 kts 88°
2026-04-30 14:45 53.74380 14.35964 2486 ft 200 kts 88°
2026-04-30 14:45 53.74306 14.38223 2475 ft 189 kts 88°
2026-04-30 14:45 53.74236 14.40465 2502 ft 190 kts 88°
2026-04-30 14:45 53.74167 14.42682 2484 ft 189 kts 87°
2026-04-30 14:46 53.74202 14.44873 2452 ft 183 kts 70°
2026-04-30 14:46 53.74840 14.46652 2447 ft 175 kts 37°
2026-04-30 14:46 53.75901 14.47592 2451 ft 171 kts 14°
2026-04-30 14:46 53.77017 14.48121 2444 ft 162 kts 11°
2026-04-30 14:47 53.78089 14.48609 2450 ft 159 kts 11°
2026-04-30 14:47 53.79161 14.49103 2464 ft 159 kts 12°
2026-04-30 14:47 53.80238 14.49555 2459 ft 158 kts
2026-04-30 14:47 53.81315 14.49267 2459 ft 156 kts 336°
2026-04-30 14:48 53.82177 14.48171 2486 ft 156 kts 313°
2026-04-30 14:48 53.82664 14.46567 2469 ft 154 kts 292°
2026-04-30 14:48 53.82970 14.44826 2477 ft 154 kts 290°
2026-04-30 14:48 53.83252 14.43081 2447 ft 150 kts 289°
2026-04-30 14:49 53.83494 14.41447 2371 ft 136 kts 289°
2026-04-30 14:49 53.83716 14.39956 2351 ft 127 kts 289°
2026-04-30 14:49 53.83923 14.38490 2325 ft 126 kts 288°
2026-04-30 14:49 53.84114 14.37052 2267 ft 125 kts 290°
2026-04-30 14:50 53.84556 14.34200 2031 ft 125 kts 292°
2026-04-30 14:50 53.84794 14.32778 1912 ft 125 kts 291°
2026-04-30 14:51 53.85237 14.29940 1656 ft 124 kts 294°
2026-04-30 14:51 53.85549 14.28569 1444 ft 125 kts 296°
2026-04-30 14:51 53.86089 14.25763 1165 ft 125 kts 290°
2026-04-30 14:52 53.86321 14.24344 992 ft 124 kts 289°
2026-04-30 14:52 53.86771 14.21527 649 ft 123 kts 291°
2026-04-30 14:52 53.87067 14.20154 501 ft 124 kts 288°
2026-04-30 14:53 53.87517 14.17327 153 ft 125 kts 289°
2026-04-30 14:53 53.87752 14.15955 83 ft 108 kts 285°
2026-04-30 14:54 53.88015 14.14336 64 ft 40 kts 287°
2026-04-30 14:54 53.88073 14.13928 67 ft 5 kts 245°
2026-04-30 14:55 53.87999 14.13890 69 ft 8 kts 178°
2026-04-30 14:55 53.87937 14.13947 70 ft 13 kts 123°
2026-04-30 14:55 53.87873 14.14052 69 ft 3 kts 209°
2026-04-30 14:56 53.87868 14.14031 69 ft 0 kts 275°
2026-04-30 14:56 53.87878 14.13995 70 ft 0 kts 300°